This demonstration page uses our WeatherBlox Daily Observations layout. Learn more.

Left ArrowRight Arrow

38.89511, -77.03637

Hourly Observations for July 3, 2022

Temp ( °F °C ) Dew Point ( °F °C ) Humidity (%) Winds ( mph kmh ) Pressure ( in mb ) Visibility ( mi km ) Precip ( " mm )
12:01 am 00:01 Cloudy with Nearby Thunderstorms 76 24.4 70 21.1 82 82 N 5 7 29.97 1015 10 16 0.00 0.00
12:21 am 00:21 Cloudy with Thunderstorms 77 25 70 21.1 79 79 N 9 15 29.98 1015 10 16 0.00 0.00
12:47 am 00:47 Cloudy 75 24 70 21 83 83 NE 12 19 29.97 1015 10 16 0.00 0.00
12:52 am 00:52 Mostly Cloudy 75 23.9 69 20.6 82 82 NE 10 17 29.97 1015 10 16 0.00 0.00
12:58 am 00:58 Mostly Cloudy with Nearby Thunderstorms 75 23.9 69 20.6 82 82 NNE 9 15 29.98 1015 10 16 0.00 0.00
1:13 am 01:13 Cloudy 76 24.4 69 20.6 79 79 NE 7 11 29.98 1015 10 16 0.00 0.00
1:19 am 01:19 Cloudy with Nearby Thunderstorms 76 24.4 69 20.6 79 79 NE 8 13 29.98 1015 10 16 0.00 0.00
1:42 am 01:42 Mostly Cloudy with Nearby Thunderstorms 76 24.4 69 20.6 79 79 NE 5 7 29.98 1015 10 16 0.00 0.00
1:50 am 01:50 Mostly Cloudy 75 24 70 21 83 83 N 3 6 29.98 1015 10 16 0.00 0.00
1:52 am 01:52 Mostly Cloudy 76 24.4 69 20.6 79 79 N 3 6 29.97 1015 10 16 0.00 0.00
2:17 am 02:17 Cloudy with Nearby Thunderstorms 76 24.4 70 21.1 82 82 N 8 13 29.98 1015 3 5 0.00 0.00
2:19 am 02:19 Cloudy with Nearby Thunderstorms 75 23.9 70 21.1 84 84 N 12 19 29.98 1015 1 2 0.01 0.25
2:27 am 02:27 Cloudy with Nearby Thunderstorms 74 23.3 71 21.7 91 91 ESE 10 17 29.97 1015 3 5 0.30 7.62
2:31 am 02:31 Cloudy with Light Rain 75 23.9 71 21.7 88 88 SSE 7 11 29.97 1015 3 5 0.34 8.64
2:52 am 02:52 Cloudy with Light Rain 75 23.9 71 21.7 88 88 ESE 5 7 29.96 1015 5 8 0.41 10.41
3:52 am 03:52 Cloudy with Light Rain 75 23.9 71 21.7 88 88 S 6 9 29.97 1015 5 8 0.09 2.29
4:52 am 04:52 Cloudy 75 23.9 70 21.1 84 84 Calm 29.96 1015 10 16 0.03 0.76
5:52 am 05:52 Cloudy 75 23.9 71 21.7 88 88 Calm 29.99 1016 10 16 0.00 0.00
6:52 am 06:52 Cloudy 76 24.4 68 20 77 77 NNW 6 9 30.01 1016 10 16 0.00 0.00
7:52 am 07:52 Cloudy 75 23.9 69 20.6 82 82 N 6 9 30.03 1017 10 16 0.00 0.00
8:52 am 08:52 Cloudy 77 25 69 20.6 77 77 N 7 11 30.04 1017 10 16 0.00 0.00
9:52 am 09:52 Mostly Cloudy 80 26.7 66 18.9 62 62 N 9 15 30.05 1018 10 16 0.00 0.00
10:52 am 10:52 Mostly Cloudy 78 25.6 63 17.2 60 60 N 13 20 30.07 1018 10 16 0.00 0.00
11:52 am 11:52 Cloudy 79 26.1 63 17.2 58 58 N 12 19 30.08 1019 10 16 0.00 0.00
12:52 pm 12:52 Cloudy 80 26.7 63 17.2 56 56 N 5 7 30.07 1018 10 16 0.00 0.00
1:52 pm 13:52 Mostly Cloudy 85 29.4 64 17.8 50 50 Calm 30.05 1018 10 16 0.00 0.00
2:52 pm 14:52 Partly Cloudy 86 30 59 15 40 40 N 8 13 30.04 1017 10 16 0.00 0.00
3:52 pm 15:52 Partly Cloudy 88 31.1 59 15 38 38 NW 8 13 30.05 1018 10 16 0.00 0.00
4:52 pm 16:52 Mostly Sunny 88 31.1 57 13.9 35 35 N 8 13 30.04 1017 10 16 0.00 0.00
5:52 pm 17:52 Mostly Sunny 87 30.6 60 15.6 40 40 NNE 10 17 30.02 1017 10 16 0.00 0.00
6:52 pm 18:52 Mostly Sunny 86 30 60 15.6 42 42 WNW 12 19 30.03 1017 10 16 0.00 0.00
7:52 pm 19:52 Mostly Sunny 85 29.4 59 15 42 42 NNW 8 13 30.04 1017 10 16 0.00 0.00
8:52 pm 20:52 Mostly Clear 83 28.3 59 15 44 44 WNW 6 9 30.06 1018 10 16 0.00 0.00
9:52 pm 21:52 Clear 81 27.2 61 16.1 51 51 N 3 6 30.07 1018 10 16 0.00 0.00
10:52 pm 22:52 Partly Cloudy 76 24.4 64 17.8 67 67 Calm 30.09 1019 10 16 0.00 0.00
11:52 pm 23:52 Mostly Clear 77 25 65 18.3 66 66 S 7 11 30.11 1020 10 16 0.00 0.00

Powered by AerisWeather